Regional Weather Roundup
Issued by NWS

Home | Current Version | Previous Version | Text Only | Print | Product List | Glossary Off
Versions: 1 2 3 4 5 6 7 8 9 10 11 12 13 14 15 16 17 18 19 20 21 22 23 24 25 26 27

000
ASUS45 KCYS 230610
RWRWY

WYOMING REGIONAL WEATHER ROUNDUP
NATIONAL WEATHER SERVICE CHEYENNE WY
1200 AM MDT WED APR 23 2014

NOTE:  "FAIR" INDICATES FEW OR NO CLOUDS BELOW 12,000 FEET
WITH NO SIGNIFICANT WEATHER AND/OR OBSTRUCTIONS TO VISIBILITY.

WYZ001-230700-
YELLOWSTONE NATIONAL PARK

CITY           SKY/WX    TMP DP  RH WIND       PRES   REMARKS
LK YELLOWSTONE   N/A     31  27  85 VRB3      29.68S
6HR MIN TEMP:  31; 6HR MAX TEMP:  49; 6HR PCP:  0.01;

W YELLOWSTONE  NOT AVBL

$$
WYZ002>013-054>058-071-098>099-230700-
NORTHERN WYOMING

CITY           SKY/WX    TMP DP  RH WIND       PRES   REMARKS
JACKSON        CLOUDY    36  34  93 S14       29.73R WCI  27
CODY           CLOUDY    55  36  47 W12G22    29.43F
GREYBULL       MOCLDY    61  36  39 S8        29.38F
6HR MIN TEMP:  61; 6HR MAX TEMP:  72;

WORLAND        PTCLDY    56  37  49 S12       29.44S
6HR MIN TEMP:  55; 6HR MAX TEMP:  71;

SHERIDAN       CLOUDY    57  41  55 S15       29.37F
6HR MIN TEMP:  56; 6HR MAX TEMP:  70;

BUFFALO        CLOUDY    52  40  63 SE14      29.44F
6HR MIN TEMP:  50; 6HR MAX TEMP:  68;

GILLETTE       MOCLDY    53  43  68 S16       29.46F
6HR MIN TEMP:  53; 6HR MAX TEMP:  59; 6HR PCP:  0.01;

HULETT         FAIR      64  36  34 S16G24    29.49
NEWCASTLE      FAIR      61  37  41 SE17G23   29.53

$$
WYZ014>020-022>026-101>103-230700-
CENTRAL WYOMING

CITY           SKY/WX    TMP DP  RH WIND       PRES   REMARKS
BIG PINEY      MOCLDY    38  23  55 NW18G26   29.71R WCI  28
6HR MIN TEMP:  38; 6HR MAX TEMP:  64; 6HR PCP: TRACE;

PINEDALE       CLOUDY    36  28  75 NW15      29.72R WCI  26
DUBOIS         CLOUDY    37  30  75 W32G40    29.58R WCI  25
LANDER         LGT RAIN  46  41  82 SW10      29.54R
6HR MIN TEMP:  46; 6HR MAX TEMP:  66; 6HR PCP:  0.03;

RIVERTON       CLOUDY    54  36  50 SW18      29.58R
6HR MIN TEMP:  54; 6HR MAX TEMP:  68;

CASPER         PTCLDY    53  28  38 SW10      29.52F
6HR MIN TEMP:  52; 6HR MAX TEMP:  65;

DOUGLAS        MOCLDY    50  40  68 SE9       29.56F
6HR MIN TEMP:  50; 6HR MAX TEMP:  62;


$$
WYZ021-027>030-104>119-230700-
SOUTHERN WYOMING

CITY           SKY/WX    TMP DP  RH WIND       PRES   REMARKS
EVANSTON       CLOUDY    33  31  92 SW10      29.82S WCI  25
6HR MIN TEMP:  33; 6HR MAX TEMP:  56; 6HR PCP:  0.03;

FORT BRIDGER   FLURRIES  35  34  94 W21G30    29.81S WCI  24
ROCK SPRINGS   LGT RAIN  40  35  83 W26G33    29.75R WCI  29
6HR MIN TEMP:  40; 6HR MAX TEMP:  66; 6HR PCP: TRACE;

DIXON          CLOUDY    59  30  33 SW15G23   29.70R
RAWLINS        PTCLDY    50  27  40 S9        29.64S
6HR MIN TEMP:  50; 6HR MAX TEMP:  64;

SARATOGA       FAIR      50  34  53 SE14G29   29.69R
LARAMIE        PTCLDY    50  28  42 S14       29.70F
6HR MIN TEMP:  47; 6HR MAX TEMP:  61;

CHEYENNE       CLOUDY    53  35  50 SW3       29.67F
6HR MIN TEMP:  51; 6HR MAX TEMP:  65; 6HR PCP: TRACE;

TORRINGTON     MOCLDY    52  40  63 VRB3      29.56F
6HR MIN TEMP:  52; 6HR MAX TEMP:  71;

PINE BLUFFS    FAIR      52  37  58 S8        29.63F

$$



USA.gov is the U.S. government's official web portal to all federal, state and local government web resources and services.